CW1988 Weather Reports


time (UTC)temp
C
wind
direction
speed
KPH
gust
KPH
rain 1hr
cm
rain 24hr
cm
rain mn
cm
humidity
%
barometer
mb
20260503220312 18 181 1.6 1.6 0.00 0.00 0.00 47 1005.8
20260503215809 18 181 1.6 3.2 0.00 0.00 0.00 45 1005.8
20260503215306 18 181 1.6 1.6 0.00 0.00 0.00 46 1005.8
20260503214804 18 181 1.6 3.2 0.00 0.00 0.00 46 1005.9
20260503214301 18 181 0.0 1.6 0.00 0.00 0.00 48 1006.0
20260503213758 18 181 1.6 1.6 0.00 0.00 0.00 48 1005.8
20260503213255 18 181 1.6 1.6 0.00 0.00 0.00 45 1005.9
20260503212752 18 181 1.6 1.6 0.00 0.00 0.00 46 1006.0
20260503212250 18 181 0.0 0.0 0.00 0.00 0.00 47 1006.3
20260503211747 18 181 0.0 1.6 0.00 0.00 0.00 47 1006.1
20260503211243 18 181 0.0 0.0 0.00 0.00 0.00 48 1006.0
20260503210739 18 181 3.2 3.2 0.00 0.00 0.00 44 1006.1
20260503210237 18 181 1.6 1.6 0.00 0.00 0.00 48 1006.2
20260503205732 18 181 1.6 1.6 0.00 0.00 0.00 47 1006.2
20260503205228 18 181 3.2 4.8 0.00 0.00 0.00 51 1006.3
20260503204724 18 181 1.6 1.6 0.00 0.00 0.00 51 1006.5
20260503204223 18 181 0.0 1.6 0.00 0.00 0.00 52 1006.5
20260503203720 18 181 0.0 1.6 0.00 0.00 0.00 51 1006.7
20260503203217 17 181 1.6 3.2 0.00 0.00 0.00 53 1006.7
20260503202714 17 181 3.2 3.2 0.00 0.00 0.00 53 1007.0
20260503202212 17 181 0.0 1.6 0.00 0.00 0.00 52 1006.9
20260503201710 17 181 1.6 1.6 0.00 0.00 0.00 52 1007.1
20260503201207 17 181 1.6 1.6 0.00 0.00 0.00 53 1007.2
20260503200703 17 181 0.0 1.6 0.00 0.00 0.00 53 1007.3
20260503200159 17 181 0.0 1.6 0.00 0.00 0.00 52 1007.4
20260503195656 17 181 0.0 0.0 0.00 0.00 0.00 51 1007.7
20260503195153 17 181 0.0 1.6 0.00 0.00 0.00 51 1007.5
20260503194650 17 181 0.0 0.0 0.00 0.00 0.00 48 1007.4
20260503194146 17 181 3.2 4.8 0.00 0.00 0.00 49 1007.5
20260503193643 17 181 3.2 3.2 0.00 0.00 0.00 48 1007.4
20260503193138 18 181 3.2 6.4 0.00 0.00 0.00 45 1007.4
20260503192634 18 181 1.6 3.2 0.00 0.00 0.00 47 1007.7
20260503192130 18 181 1.6 3.2 0.00 0.00 0.00 46 1007.6
20260503191627 18 181 1.6 1.6 0.00 0.00 0.00 49 1007.4
20260503191124 18 181 1.6 1.6 0.00 0.00 0.00 48 1007.7
20260503190621 17 181 3.2 3.2 0.00 0.00 0.00 47 1007.6
20260503190118 17 181 1.6 3.2 0.00 0.00 0.00 47 1008.0
20260503185614 17 181 3.2 3.2 0.00 0.00 0.00 49 1007.7
20260503185114 17 181 3.2 3.2 0.00 0.00 0.00 47 1007.9
20260503184609 17 181 1.6 3.2 0.00 0.00 0.00 49 1008.0
20260503184106 17 181 1.6 1.6 0.00 0.00 0.00 49 1008.0
20260503183603 17 181 1.6 3.2 0.00 0.00 0.00 49 1008.2
20260503183100 17 181 0.0 0.0 0.00 0.00 0.00 51 1008.1
20260503182558 17 181 1.6 1.6 0.00 0.00 0.00 53 1008.3
20260503182056 17 181 1.6 3.2 0.00 0.00 0.00 52 1008.5
20260503181553 17 181 1.6 3.2 0.00 0.00 0.00 56 1008.7
20260503181049 17 181 1.6 3.2 0.00 0.00 0.00 51 1008.6
20260503180546 17 181 1.6 1.6 0.00 0.00 0.00 52 1008.7
20260503180044 16 181 1.6 3.2 0.00 0.00 0.00 54 1008.7
20260503175542 16 181 1.6 3.2 0.00 0.00 0.00 53 1008.8
20260503175039 16 181 0.0 1.6 0.00 0.00 0.00 55 1008.9
20260503174536 16 181 1.6 3.2 0.00 0.00 0.00 56 1009.0
20260503174032 16 181 1.6 1.6 0.00 0.00 0.00 54 1009.1
20260503173527 16 181 0.0 0.0 0.00 0.00 0.00 57 1009.4
20260503173023 16 181 1.6 3.2 0.00 0.00 0.00 54 1009.5
20260503172521 16 181 1.6 1.6 0.00 0.00 0.00 53 1009.6
20260503172018 15 181 1.6 3.2 0.00 0.00 0.00 55 1009.6
20260503171514 15 181 1.6 1.6 0.00 0.00 0.00 60 1009.9
20260503171012 15 181 0.0 0.0 0.00 0.00 0.00 55 1009.9
20260503170508 15 181 1.6 3.2 0.00 0.00 0.00 56 1010.0
20260503150855 14 181 1.6 1.6 0.00 0.00 0.00 54 1011.1
20260503150351 15 181 3.2 3.2 0.00 0.00 0.00 53 1011.2
20260503140315 15 180 0.0 1.6 0.00 0.00 0.00 50 1011.7
20260503131244 13 181 1.6 1.6 0.00 0.00 0.00 53 1012.5
20260503130742 11 181 0.0 1.6 0.00 0.00 0.00 56 1012.3
20260503130239 11 181 0.0 0.0 0.00 0.00 0.00 56 1012.3
20260503120206 10 181 0.0 0.0 0.00 0.00 0.00 54 1012.2
20260503110632 9 182 1.6 1.6 0.00 0.00 0.00 55 1012.1
20260503110129 9 182 0.0 0.0 0.00 0.00 0.00 55 1012.2
20260503081433 7 181 0.0 0.0 0.00 0.00 0.00 59 1013.4
20260503080931 7 181 0.0 0.0 0.00 0.00 0.00 59 1013.3
20260503080427 7 181 0.0 0.0 0.00 0.00 0.00 60 1013.5
20260503072904 7 181 0.0 0.0 0.00 0.00 0.00 59 1013.6
20260503072400 7 181 0.0 0.0 0.00 0.00 0.00 60 1013.7
20260503071857 7 181 0.0 0.0 0.00 0.00 0.00 61 1013.8
20260503071355 7 181 0.0 0.0 0.00 0.00 0.00 61 1013.8
20260503070850 7 181 0.0 0.0 0.00 0.00 0.00 61 1013.7
20260503070349 7 181 0.0 0.0 0.00 0.00 0.00 61 1013.8
20260503060314 7 181 0.0 0.0 0.00 0.00 0.00 61 1014.2
20260503054802 7 181 0.0 0.0 0.00 0.00 0.00 61 1014.5
20260503054258 7 181 0.0 0.0 0.00 0.00 0.00 60 1014.3
20260503053756 7 181 0.0 0.0 0.00 0.00 0.00 61 1014.4
20260503053255 7 181 0.0 0.0 0.00 0.00 0.00 61 1014.5
20260503052750 7 181 0.0 0.0 0.00 0.00 0.00 60 1014.6
20260503052248 7 181 0.0 0.0 0.00 0.00 0.00 60 1014.6
20260503051742 7 181 0.0 0.0 0.00 0.00 0.00 59 1014.5
20260503051240 7 181 0.0 0.0 0.00 0.00 0.00 59 1014.6
20260503050736 7 181 0.0 0.0 0.00 0.00 0.00 59 1014.6
20260503050232 7 181 0.0 0.0 0.00 0.00 0.00 59 1014.6
20260503045730 7 181 0.0 0.0 0.00 0.00 0.00 59 1014.7
20260503045228 7 181 0.0 0.0 0.00 0.00 0.00 59 1014.5
20260503044724 7 181 0.0 0.0 0.00 0.00 0.00 60 1014.7
20260503044221 7 181 0.0 0.0 0.00 0.00 0.00 59 1014.7
20260503043718 7 181 0.0 0.0 0.00 0.00 0.00 59 1014.6
20260503043216 7 181 0.0 0.0 0.00 0.00 0.00 59 1014.8
20260503042711 7 181 0.0 0.0 0.00 0.00 0.00 60 1014.6
20260503042208 7 181 0.0 0.0 0.00 0.00 0.00 60 1014.8
20260503041704 7 181 0.0 0.0 0.00 0.00 0.00 60 1014.7
20260503041202 7 181 0.0 0.0 0.00 0.00 0.00 60 1014.9
20260503040659 7 181 0.0 0.0 0.00 0.00 0.00 60 1014.9
20260503040157 7 181 0.0 0.0 0.00 0.00 0.00 60 1015.0
20260503035653 7 181 0.0 0.0 0.00 0.00 0.00 60 1015.1
20260503035151 7 181 0.0 0.0 0.00 0.00 0.00 59 1015.0
20260503034648 7 181 0.0 0.0 0.00 0.00 0.00 60 1014.9
20260503034145 7 181 0.0 0.0 0.00 0.00 0.00 60 1015.2
20260503033642 7 181 0.0 0.0 0.00 0.00 0.00 61 1015.3
20260503033140 7 181 0.0 0.0 0.00 0.00 0.00 62 1015.0
20260503032638 7 181 0.0 0.0 0.00 0.00 0.00 63 1015.2
20260503032136 7 181 0.0 0.0 0.00 0.00 0.00 63 1015.3
20260503031628 7 181 0.0 0.0 0.00 0.00 0.00 64 1015.3
20260503031126 7 181 0.0 0.0 0.00 0.00 0.00 65 1015.2
20260503030621 7 181 0.0 0.0 0.00 0.00 0.00 65 1015.4
20260503030118 7 181 0.0 0.0 0.00 0.00 0.00 64 1015.3
20260503025614 7 181 0.0 0.0 0.00 0.00 0.00 65 1015.6
20260503025112 7 181 0.0 0.0 0.00 0.00 0.00 65 1015.4
20260503024608 7 181 0.0 0.0 0.00 0.00 0.00 64 1015.5
20260503024100 7 181 0.0 0.0 0.00 0.00 0.00 65 1015.7
20260503023557 7 181 0.0 0.0 0.00 0.00 0.00 65 1015.6
20260503023054 7 181 0.0 0.0 0.00 0.00 0.00 65 1015.4
20260503022550 7 181 0.0 0.0 0.00 0.00 0.00 65 1015.5
20260503022045 7 181 0.0 0.0 0.00 0.00 0.00 63 1015.6
20260503021542 7 181 0.0 0.0 0.00 0.00 0.00 63 1015.6
20260503021039 7 181 0.0 0.0 0.00 0.00 0.00 63 1015.5
20260503020536 7 181 0.0 0.0 0.00 0.00 0.00 62 1015.5
20260503020033 7 181 0.0 0.0 0.00 0.00 0.00 62 1015.3
20260503015530 8 181 0.0 0.0 0.00 0.00 0.00 61 1015.5
20260503015027 8 181 0.0 0.0 0.00 0.00 0.00 61 1015.5
20260503014523 8 181 0.0 0.0 0.00 0.00 0.00 61 1015.5
20260503014021 8 181 0.0 0.0 0.00 0.00 0.00 60 1015.4
20260503013518 8 181 0.0 0.0 0.00 0.00 0.00 59 1015.2
20260503013015 8 181 0.0 0.0 0.00 0.00 0.00 59 1015.3
20260503012513 8 181 0.0 0.0 0.00 0.00 0.00 58 1015.2
20260503012009 8 181 0.0 0.0 0.00 0.00 0.00 58 1015.1
20260503011506 8 181 0.0 0.0 0.00 0.00 0.00 57 1015.0
20260503011003 9 181 0.0 0.0 0.00 0.00 0.00 57 1015.1
20260503010459 9 181 0.0 0.0 0.00 0.00 0.00 56 1015.4
20260503005956 10 181 0.0 0.0 0.00 0.00 0.00 55 1015.3
20260503005453 10 181 0.0 0.0 0.00 0.00 0.00 54 1015.3
20260503004950 10 181 0.0 0.0 0.00 0.00 0.00 55 1015.2
20260503004446 10 181 0.0 0.0 0.00 0.00 0.00 52 1015.2
20260503003945 11 181 0.0 0.0 0.00 0.00 0.00 50 1015.3
20260503003441 11 181 0.0 0.0 0.00 0.00 0.00 48 1015.1
20260503002938 12 181 0.0 0.0 0.00 0.00 0.00 47 1015.1
20260503002435 12 181 0.0 0.0 0.00 0.00 0.00 45 1015.3
20260503001931 12 181 0.0 0.0 0.00 0.00 0.00 41 1015.3
20260503001428 12 181 0.0 0.0 0.00 0.00 0.00 41 1015.2
20260503000926 12 181 0.0 0.0 0.00 0.00 0.00 42 1015.2
20260503000422 12 181 0.0 0.0 0.00 0.00 0.00 40 1015.3
20260502235920 13 181 0.0 0.0 0.00 0.00 0.00 41 1015.4
20260502235417 13 181 0.0 0.0 0.00 0.00 0.00 41 1015.2
20260502234915 13 181 0.0 0.0 0.00 0.00 0.00 42 1015.4
20260502234411 13 181 0.0 1.6 0.00 0.00 0.00 43 1015.5
20260502233908 13 181 0.0 0.0 0.00 0.00 0.00 43 1015.7
20260502233403 13 181 0.0 0.0 0.00 0.00 0.00 39 1015.6
20260502232901 13 181 0.0 0.0 0.00 0.00 0.00 42 1015.7
20260502232357 13 181 0.0 0.0 0.00 0.00 0.00 41 1015.6
20260502231854 13 181 0.0 1.6 0.00 0.00 0.00 41 1015.5
20260502231352 13 181 0.0 0.0 0.00 0.00 0.00 39 1015.8
20260502230850 13 181 0.0 0.0 0.00 0.00 0.00 40 1015.7
20260502230347 13 181 0.0 0.0 0.00 0.00 0.00 41 1015.7
20260502225843 13 181 0.0 0.0 0.00 0.00 0.00 42 1016.0
20260502225335 13 181 0.0 0.0 0.00 0.00 0.00 42 1015.8
20260502224832 13 181 0.0 0.0 0.00 0.00 0.00 42 1016.1
20260502224327 13 181 1.6 1.6 0.00 0.00 0.00 42 1016.2
20260502223825 13 181 0.0 0.0 0.00 0.00 0.00 42 1016.2
20260502223323 13 181 0.0 0.0 0.00 0.00 0.00 40 1016.2
20260502222815 13 181 0.0 0.0 0.00 0.00 0.00 40 1016.1
20260502222312 13 181 0.0 0.0 0.00 0.00 0.00 43 1016.1
20260502221808 13 181 1.6 3.2 0.00 0.00 0.00 38 1016.3
20260502221304 13 181 0.0 1.6 0.00 0.00 0.00 40 1016.3
20260502220801 13 181 0.0 0.0 0.00 0.00 0.00 38 1016.4